Back to catalog

STARLINK-11359

AliveCommunicationsVLEO
NORAD 61884·PAYLOAD·🇺🇸 United States

Launched Nov 9, 2024 from Vandenberg Space Force Base

Loading…

Next Passes (next 24 hours)

TLE

FreshSource: CelesTrak SupGP

Epoch: Sep 14, 2026, 14:03 UTC

1 61884C 24204L   26257.58590278  .00047623  00000+0  39250-3 0  2575
2 61884  53.1563 144.9581 0001075  91.8907 298.1553 15.69672741    13

Track STARLINK-11359 in real time with AllMySat

Download on the App Store